�������l�o���
Date,Time,MP-1(��Sv/h),MP-2(��Sv/h),MP-3(��Sv/h),MP-4(��Sv/h),MP-5(��Sv/h),MP-6(��Sv/h),MP-7(��Sv/h),MP-8(��Sv/h),����,����(m/s),���J
2017/08/24,00:00,0.935,1.457,0.967,1.748,1.202,0.514,0.937,0.866,�k��,5.0,��
2017/08/24,00:10,0.933,1.460,0.967,1.751,1.201,0.516,0.938,0.867,�k��,5.7,��
2017/08/24,00:20,0.935,1.458,0.967,1.751,1.201,0.515,0.937,0.867,�k��,4.7,��
2017/08/24,00:30,0.932,1.460,0.965,1.751,1.198,0.515,0.937,0.867,�k��,4.2,��
2017/08/24,00:40,0.934,1.460,0.966,1.751,1.200,0.515,0.939,0.867,�k��,3.1,��
2017/08/24,00:50,0.935,1.458,0.967,1.750,1.200,0.515,0.939,0.866,�k,0.9,��
2017/08/24,01:00,0.934,1.460,0.966,1.751,1.200,0.515,0.938,0.866,�k��,3.1,��
2017/08/24,01:10,0.932,1.458,0.967,1.753,1.200,0.515,0.936,0.867,�k��,2.9,��
2017/08/24,01:20,0.932,1.458,0.968,1.749,1.201,0.517,0.938,0.865,�k�k��,2.5,��
2017/08/24,01:30,0.933,1.461,0.966,1.752,1.200,0.516,0.938,0.867,�k��,3.0,��
2017/08/24,01:40,0.933,1.463,0.966,1.752,1.200,0.517,0.938,0.867,�k��,3.1,��
2017/08/24,01:50,0.933,1.461,0.970,1.750,1.199,0.517,0.938,0.868,�k�k��,3.8,��
2017/08/24,02:00,0.934,1.462,0.966,1.752,1.200,0.516,0.938,0.867,�k��,3.7,��
2017/08/24,02:10,0.932,1.461,0.967,1.749,1.201,0.516,0.936,0.868,���k��,3.5,��
2017/08/24,02:20,0.935,1.461,0.969,1.751,1.204,0.516,0.937,0.865,�k��,1.7,��
2017/08/24,02:30,0.935,1.462,0.967,1.749,1.203,0.514,0.936,0.869,���k��,1.1,��
2017/08/24,02:40,0.932,1.459,0.966,1.752,1.200,0.516,0.938,0.865,�k��,2.0,��
2017/08/24,02:50,0.931,1.459,0.966,1.750,1.200,0.516,0.937,0.867,�k��,1.9,��
2017/08/24,03:00,0.934,1.460,0.966,1.752,1.201,0.516,0.937,0.867,�k��,2.0,��
2017/08/24,03:10,0.933,1.462,0.966,1.752,1.202,0.516,0.938,0.866,�k��,1.7,��
2017/08/24,03:20,0.934,1.460,0.968,1.753,1.201,0.517,0.936,0.864,�k�k��,0.8,��
2017/08/24,03:30,0.935,1.461,0.966,1.750,1.203,0.516,0.937,0.866,�k,1.5,��
2017/08/24,03:40,0.933,1.459,0.966,1.751,1.202,0.516,0.938,0.866,�k�k��,0.9,��
2017/08/24,03:50,0.933,1.460,0.967,1.748,1.200,0.516,0.938,0.868,-,CALM,��
2017/08/24,04:00,0.934,1.460,0.968,1.752,1.202,0.514,0.937,0.866,�k�k��,0.6,��
2017/08/24,04:10,0.935,1.463,0.967,1.751,1.202,0.516,0.937,0.865,�k�k��,1.1,��
2017/08/24,04:20,0.935,1.460,0.966,1.752,1.202,0.515,0.937,0.867,�k�k��,1.7,��
2017/08/24,04:30,0.934,1.461,0.967,1.752,1.201,0.516,0.938,0.866,�k�k��,0.8,��
2017/08/24,04:40,0.934,1.460,0.968,1.750,1.204,0.516,0.936,0.868,��,0.9,��
2017/08/24,04:50,0.933,1.462,0.968,1.754,1.203,0.516,0.938,0.868,�쐼,0.9,��
2017/08/24,05:00,0.933,1.461,0.968,1.753,1.202,0.516,0.938,0.866,���쐼,1.2,��
2017/08/24,05:10,0.931,1.462,0.968,1.753,1.200,0.515,0.937,0.866,��,1.7,��
2017/08/24,05:20,0.932,1.460,0.966,1.753,1.202,0.516,0.938,0.867,�쐼,2.2,��
2017/08/24,05:30,0.934,1.463,0.967,1.752,1.202,0.514,0.938,0.866,��쐼,1.5,��
2017/08/24,05:40,0.934,1.461,0.968,1.753,1.200,0.514,0.938,0.867,��쓌,1.4,��
2017/08/24,05:50,0.935,1.462,0.965,1.750,1.202,0.515,0.940,0.867,�쓌,0.9,��
2017/08/24,06:00,0.936,1.462,0.968,1.752,1.203,0.516,0.940,0.868,��쓌,1.7,��
2017/08/24,06:10,0.933,1.462,0.968,1.753,1.203,0.517,0.940,0.867,��,1.4,��
2017/08/24,06:20,0.931,1.462,0.960,1.752,1.200,0.516,0.939,0.868,���쐼,1.2,��
2017/08/24,06:30,0.935,1.461,0.965,1.755,1.201,0.516,0.938,0.868,-,CALM,��
2017/08/24,06:40,0.933,1.466,0.966,1.754,1.204,0.515,0.939,0.865,�쓌,0.9,��
2017/08/24,06:50,0.934,1.464,0.968,1.754,1.199,0.517,0.937,0.867,��쓌,0.8,��
2017/08/24,07:00,0.937,1.464,0.967,1.754,1.198,0.517,0.938,0.867,�쓌,0.9,��
2017/08/24,07:10,0.936,1.462,0.969,1.755,1.201,0.515,0.939,0.867,-,CALM,��
2017/08/24,07:20,0.936,1.462,0.968,1.753,1.203,0.514,0.938,0.868,-,CALM,��
2017/08/24,07:30,0.934,1.462,0.967,1.754,1.202,0.517,0.940,0.868,�k,0.6,��
2017/08/24,07:40,0.934,1.459,0.964,1.750,1.202,0.516,0.941,0.868,���쓌,0.9,��
2017/08/24,07:50,0.936,1.460,0.967,1.751,1.202,0.517,0.939,0.866,��쓌,0.8,��
2017/08/24,08:00,0.934,1.460,0.967,1.753,1.201,0.516,0.941,0.868,-,CALM,��
2017/08/24,08:10,0.935,1.461,0.968,1.756,1.204,0.517,0.940,0.866,-,CALM,��
2017/08/24,08:20,0.932,1.463,0.968,1.756,1.205,0.517,0.941,0.869,�쓌,1.2,��
2017/08/24,08:30,0.935,1.461,0.965,1.753,1.203,0.517,0.938,0.869,�쓌,1.7,��
2017/08/24,08:40,0.937,1.463,0.966,1.753,1.204,0.516,0.941,0.867,�쓌,1.9,��
2017/08/24,08:50,0.937,1.464,0.968,1.756,1.205,0.518,0.941,0.869,�쓌,1.1,��
2017/08/24,09:00,0.939,1.464,0.967,1.754,1.204,0.519,0.941,0.868,�쓌,2.3,��
2017/08/24,09:10,0.937,1.465,0.968,1.758,1.205,0.517,0.942,0.869,�쓌,2.0,��
2017/08/24,09:20,0.936,1.465,0.967,1.755,1.208,0.518,0.941,0.869,��쓌,3.3,��
2017/08/24,09:30,0.940,1.465,0.970,1.758,1.206,0.519,0.943,0.869,��쓌,3.1,��
2017/08/24,09:40,0.938,1.465,0.972,1.754,1.209,0.517,0.941,0.871,�쓌,3.2,��
2017/08/24,09:50,0.938,1.463,0.974,1.758,1.206,0.517,0.942,0.871,���쓌,3.0,��
2017/08/24,10:00,0.939,1.464,0.973,1.759,1.206,0.518,0.944,0.867,�쓌,2.2,��
2017/08/24,10:10,0.938,1.463,0.971,1.759,1.206,0.517,0.938,0.868,�쓌,3.8,��
2017/08/24,10:20,0.938,1.466,0.972,1.757,1.207,0.517,0.940,0.870,��쓌,3.7,��
2017/08/24,10:30,0.941,1.468,0.972,1.758,1.209,0.518,0.939,0.866,��,3.9,��
2017/08/24,10:40,0.937,1.465,0.973,1.760,1.210,0.517,0.940,0.867,��쓌,4.1,��
2017/08/24,10:50,0.940,1.468,0.972,1.759,1.209,0.517,0.943,0.867,��쓌,4.3,��
2017/08/24,11:00,0.939,1.467,0.971,1.760,1.208,0.518,0.943,0.869,��쓌,3.7,��
2017/08/24,11:10,0.941,1.467,0.971,1.759,1.212,0.517,0.939,0.866,��쓌,4.6,��
2017/08/24,11:20,0.939,1.467,0.970,1.763,1.211,0.516,0.940,0.867,��쓌,4.2,��
2017/08/24,11:30,0.941,1.468,0.973,1.762,1.210,0.518,0.941,0.868,��쐼,2.6,��
2017/08/24,11:40,0.940,1.466,0.973,1.759,1.209,0.518,0.941,0.868,��,6.0,��
2017/08/24,11:50,0.944,1.467,0.974,1.760,1.210,0.517,0.942,0.867,��,4.9,��
2017/08/24,12:00,0.943,1.469,0.973,1.761,1.214,0.518,0.943,0.869,��,4.0,��
2017/08/24,12:10,0.940,1.470,0.976,1.762,1.210,0.517,0.942,0.867,��,3.5,��
2017/08/24,12:20,0.942,1.471,0.977,1.758,1.212,0.517,0.942,0.868,���쐼,3.1,��
2017/08/24,12:30,0.940,1.471,0.972,1.761,1.214,0.518,0.940,0.867,��쐼,2.0,��
2017/08/24,12:40,0.941,1.476,0.974,1.759,1.214,0.515,0.943,0.868,��쐼,3.0,��
2017/08/24,12:50,0.946,1.475,0.976,1.759,1.214,0.519,0.940,0.867,�쐼,4.1,��
2017/08/24,13:00,0.942,1.474,0.976,1.763,1.212,0.518,0.941,0.869,��쐼,3.0,�L
2017/08/24,13:10,0.941,1.471,0.976,1.762,1.213,0.517,0.940,0.868,��,3.9,��
2017/08/24,13:20,0.944,1.470,0.976,1.760,1.217,0.517,0.940,0.869,��,4.9,��
2017/08/24,13:30,0.944,1.470,0.975,1.760,1.212,0.519,0.943,0.869,��,4.6,��
2017/08/24,13:40,0.943,1.469,0.975,1.762,1.213,0.517,0.943,0.870,��,5.0,��
2017/08/24,13:50,0.945,1.471,0.977,1.759,1.215,0.516,0.943,0.869,��,5.4,��
2017/08/24,14:00,0.943,1.473,0.978,1.763,1.213,0.517,0.943,0.868,��,5.5,��
2017/08/24,14:10,0.942,1.472,0.976,1.761,1.215,0.517,0.945,0.870,��,4.9,��
2017/08/24,14:20,0.949,1.468,0.979,1.762,1.212,0.516,0.942,0.870,��,4.8,��
2017/08/24,14:30,0.945,1.472,0.976,1.760,1.216,0.518,0.942,0.870,��,4.8,��
2017/08/24,14:40,0.942,1.474,0.977,1.763,1.212,0.517,0.943,0.869,��,5.4,��
2017/08/24,14:50,0.945,1.473,0.977,1.760,1.211,0.517,0.944,0.869,��,5.4,��
2017/08/24,15:00,0.944,1.474,0.978,1.762,1.213,0.516,0.941,0.869,��,6.2,��
2017/08/24,15:10,0.945,1.472,0.977,1.762,1.216,0.517,0.942,0.869,��,6.8,��
2017/08/24,15:20,0.945,1.475,0.979,1.762,1.210,0.517,0.942,0.869,��,5.6,��
2017/08/24,15:30,0.944,1.475,0.976,1.765,1.217,0.519,0.945,0.870,��,5.6,��
2017/08/24,15:40,0.944,1.474,0.977,1.767,1.213,0.520,0.943,0.872,��,5.0,��
2017/08/24,15:50,0.945,1.475,0.978,1.764,1.213,0.518,0.943,0.871,��쐼,4.5,��
2017/08/24,16:00,0.945,1.475,0.980,1.764,1.213,0.517,0.945,0.870,��,4.4,�L
2017/08/24,16:10,0.945,1.477,0.979,1.763,1.216,0.519,0.945,0.868,��,4.6,��
2017/08/24,16:20,0.945,1.474,0.978,1.765,1.214,0.519,0.943,0.869,��,4.8,��
2017/08/24,16:30,0.947,1.472,0.977,1.763,1.212,0.518,0.944,0.870,��쐼,4.4,��
2017/08/24,16:40,0.945,1.474,0.975,1.763,1.214,0.519,0.943,0.870,��,4.5,��
2017/08/24,16:50,0.946,1.477,0.980,1.761,1.215,0.516,0.944,0.870,��,3.9,��
2017/08/24,17:00,0.946,1.474,0.979,1.764,1.214,0.518,0.943,0.870,��,4.1,��
2017/08/24,17:10,0.947,1.476,0.980,1.767,1.215,0.519,0.945,0.869,��,3.6,��
2017/08/24,17:20,0.946,1.478,0.981,1.766,1.216,0.520,0.944,0.869,��쐼,2.3,��
2017/08/24,17:30,0.947,1.476,0.980,1.767,1.214,0.519,0.944,0.871,�쐼,1.7,��
2017/08/24,17:40,0.949,1.478,0.981,1.766,1.216,0.519,0.944,0.871,�쐼,1.2,��
2017/08/24,17:50,0.946,1.480,0.981,1.763,1.216,0.519,0.945,0.871,��,1.9,��
2017/08/24,18:00,0.945,1.478,0.981,1.767,1.217,0.520,0.943,0.870,���k��,2.5,��
2017/08/24,18:10,0.947,1.477,0.980,1.766,1.213,0.520,0.945,0.869,��,2.0,��
2017/08/24,18:20,0.945,1.477,0.979,1.763,1.212,0.521,0.947,0.870,�쐼,4.4,��
2017/08/24,18:30,0.949,1.476,0.979,1.764,1.213,0.519,0.945,0.869,���쐼,6.7,��
2017/08/24,18:40,0.948,1.477,0.977,1.762,1.213,0.520,0.946,0.870,�쐼,5.7,��
2017/08/24,18:50,0.943,1.475,0.976,1.762,1.213,0.518,0.943,0.869,�쐼,5.6,��
2017/08/24,19:00,0.945,1.475,0.976,1.766,1.214,0.518,0.943,0.871,�쐼,5.4,��
2017/08/24,19:10,0.946,1.476,0.977,1.763,1.213,0.518,0.942,0.869,�쐼,5.9,��
2017/08/24,19:20,0.945,1.480,0.979,1.764,1.215,0.518,0.943,0.869,�쐼,4.6,��
2017/08/24,19:30,0.945,1.478,0.979,1.761,1.216,0.518,0.942,0.870,�쐼,4.8,��
2017/08/24,19:40,0.946,1.478,0.976,1.765,1.216,0.519,0.942,0.869,�쐼,5.0,��
2017/08/24,19:50,0.947,1.477,0.981,1.766,1.217,0.519,0.945,0.869,��쐼,4.9,��
2017/08/24,20:00,0.945,1.478,0.979,1.764,1.219,0.519,0.944,0.868,��쐼,4.4,��
2017/08/24,20:10,0.947,1.481,0.979,1.766,1.216,0.521,0.943,0.870,��쐼,5.5,��
2017/08/24,20:20,0.947,1.480,0.979,1.766,1.216,0.518,0.945,0.869,��쐼,6.7,��
2017/08/24,20:30,0.946,1.477,0.981,1.764,1.216,0.519,0.944,0.870,��쐼,6.8,��
2017/08/24,20:40,0.946,1.479,0.979,1.767,1.216,0.520,0.943,0.870,��,4.4,��
2017/08/24,20:50,0.947,1.477,0.981,1.765,1.215,0.518,0.945,0.870,��쐼,4.0,��
2017/08/24,21:00,0.948,1.479,0.980,1.765,1.217,0.518,0.945,0.869,��쐼,4.3,��
2017/08/24,21:10,0.945,1.479,0.980,1.765,1.216,0.519,0.943,0.870,�쐼,6.7,��
2017/08/24,21:20,0.946,1.479,0.979,1.765,1.216,0.519,0.944,0.869,�쐼,7.7,��
2017/08/24,21:30,0.946,1.477,0.979,1.765,1.218,0.518,0.944,0.867,�쐼,7.8,��
2017/08/24,21:40,0.946,1.478,0.980,1.764,1.216,0.519,0.941,0.869,�쐼,7.5,��
2017/08/24,21:50,0.945,1.478,0.981,1.766,1.218,0.520,0.943,0.870,���쐼,7.4,��
2017/08/24,22:00,0.946,1.478,0.981,1.763,1.213,0.519,0.945,0.872,���쐼,6.8,��
2017/08/24,22:10,0.944,1.477,0.980,1.766,1.215,0.520,0.944,0.871,�쐼,6.2,��
2017/08/24,22:20,0.945,1.478,0.981,1.763,1.214,0.520,0.945,0.870,�쐼,6.4,��
2017/08/24,22:30,0.947,1.478,0.980,1.766,1.215,0.520,0.945,0.871,�쐼,7.0,��
2017/08/24,22:40,0.946,1.477,0.981,1.764,1.216,0.520,0.944,0.870,�쐼,8.1,��
2017/08/24,22:50,0.948,1.479,0.980,1.763,1.214,0.518,0.943,0.870,�쐼,7.9,��
2017/08/24,23:00,0.947,1.478,0.979,1.768,1.217,0.519,0.945,0.870,�쐼,6.5,��
2017/08/24,23:10,0.947,1.480,0.980,1.766,1.216,0.521,0.943,0.871,�쐼,7.0,��
2017/08/24,23:20,0.948,1.478,0.980,1.766,1.217,0.520,0.944,0.869,�쐼,7.0,��
2017/08/24,23:30,0.947,1.477,0.980,1.765,1.219,0.519,0.942,0.870,��쐼,6.8,��
2017/08/24,23:40,0.946,1.476,0.981,1.766,1.216,0.518,0.942,0.869,��쐼,5.5,��
2017/08/24,23:50,0.947,1.481,0.982,1.769,1.214,0.519,0.943,0.871,��쐼,6.1,��
